This demonstration page uses our WeatherBlox Daily Observations layout. Learn more.

Left ArrowRight Arrow

Hourly Observations for January 14, 2022

Temp ( °F °C ) Dew Point ( °F °C ) Humidity (%) Winds ( mph kmh ) Pressure ( in mb ) Visibility ( mi km ) Precip ( " mm )
12:53 am 00:53 Clear 39 3.9 34 1.1 82 82 W 3 6 29.91 1013 10 16 0.00 0.00
1:53 am 01:53 Clear 41 5 35 1.7 79 79 NW 3 6 29.92 1013 10 16 0.00 0.00
2:53 am 02:53 Clear 41 5 34 1.1 76 76 NW 3 6 29.91 1013 10 16 0.00 0.00
3:53 am 03:53 Clear 40 4.4 34 1.1 79 79 NNW 3 6 29.91 1013 10 16 0.00 0.00
4:53 am 04:53 Clear 40 4.4 33 0.6 77 77 undefined N/A 29.92 1013 10 16 0.00 0.00
5:53 am 05:53 Clear 39 3.9 33 0.6 79 79 NNW 3 6 29.94 1014 10 16 0.00 0.00
6:53 am 06:53 Clear 38 3.3 32 0 79 79 WNW 3 6 29.97 1015 10 16 0.00 0.00
7:53 am 07:53 Sunny 38 3.3 32 0 79 79 Calm 29.98 1015 10 16 0.00 0.00
8:53 am 08:53 Sunny 41 5 34 1.1 76 76 VRB 3 6 30.00 1016 10 16 0.00 0.00
9:53 am 09:53 Sunny 43 6.1 33 0.6 68 68 NNW 12 19 30.02 1017 10 16 0.00 0.00
10:53 am 10:53 Sunny 46 7.8 32 0 58 58 NW 12 19 30.03 1017 10 16 0.00 0.00
11:53 am 11:53 Sunny 49 9.4 32 0 52 52 NW 13 20 30.02 1017 10 16 0.00 0.00
12:53 pm 12:53 Sunny 52 11.1 32 0 47 47 NNW 8 13 29.98 1015 10 16 0.00 0.00
1:53 pm 13:53 Sunny 54 12.2 33 0.6 45 45 WNW 10 17 29.96 1015 10 16 0.00 0.00
2:53 pm 14:53 Sunny 54 12.2 32 0 43 43 NNE 7 11 29.96 1014 10 16 0.00 0.00
3:53 pm 15:53 Sunny 54 12.2 32 0 43 43 NW 9 15 29.95 1014 10 16 0.00 0.00
4:53 pm 16:53 Sunny 54 12.2 31 -0.6 42 42 NW 8 13 29.96 1015 10 16 0.00 0.00
5:53 pm 17:53 Clear 50 10 30 -1.1 46 46 NNW 3 6 29.97 1015 10 16 0.00 0.00
6:53 pm 18:53 Clear 48 8.9 31 -0.6 52 52 NNE 3 6 29.98 1015 10 16 0.00 0.00
7:53 pm 19:53 Clear 45 7.2 32 0 61 61 SSE 5 7 29.99 1016 10 16 0.00 0.00
8:53 pm 20:53 Clear 41 5 32 0 70 70 Calm 29.99 1016 10 16 0.00 0.00
9:53 pm 21:53 Clear 42 5.6 33 0.6 71 71 Calm 30.00 1016 10 16 0.00 0.00
10:53 pm 22:53 Clear 39 3.9 32 0 76 76 Calm 29.99 1016 10 16 0.00 0.00
11:53 pm 23:53 Clear 39 3.9 34 1.1 82 82 SW 5 7 30.00 1016 10 16 0.00 0.00

Powered by AerisWeather